Weather in Osinovka

Russia / Samara Oblast     53°11′35″N   49°38′10″E
temp.,
°C
wind,
m/s
gust,
m/s
humid.,
%
clouds,
%
prec.,
mm/h
press.,
hPa
HPBL,
m
22 october, fri
fri2201:00+8wsw5149099 0.0 1006512
04:00+8sw51288100 0.3 1006384
07:00+7sw5138898 0.0 1006367
10:00+9sw71575100 0.0 1005693
13:00+11sw71460100 0.0 1005828
16:00+12sw71462100 0.0 1005932
19:00+11sw6157185 0.0 1007703
22:00+11wsw6157388 0.0 1008745
23 october, sat
sat2301:00+10wsw5138453 0.0 1009474
04:00+8wsw4119066 0.0 1011314
07:00+7sw311932 0.0 1012287
10:00+10wsw512772 0.0 1013608
13:00+13wsw612465 0.0 10131432
16:00+13sw51050100 0.0 10131065
19:00+12ssw31158100 0.0 1013323
22:00+12ssw41260100 0.1 1011523
24 october, sun
sun2401:00+10ssw41191100 2.1 1010692
04:00+10wsw41089100 3.8 1009633
07:00+8nw4108561 0.5 1010477
10:00+8w59683 0.5 1012769
13:00+9w57556 0.0 10131112
16:00+9w465279 0.0 10131303
19:00+6w22665 0.0 101418
22:00+6nw2670100 0.0 1015291
25 october, mon
mon2501:00+6nw2468100 0.0 1016236
04:00+6nw116093 0.0 101611
07:00+4wsw226782 0.0 101623
10:00+5nw357098 0.0 1018551
13:00+7nw466026 0.0 10181236
16:00+5nnw696777 0.2 10201072
19:00+2nnw6106940 0.0 10231140
22:00+1n511635 0.0 1026910
26 october, tue
tue2601:000nnw511705 0.0 1028630
04:00−1nnw410755 0.0 1029505
07:00−1nnw39785 0.0 1030405
10:00+1nw46613 0.0 1032580
13:00+3wnw454086 0.0 1031741
16:00+4wsw4740100 0.0 1029815
19:00+2wsw4115026 0.0 1029419
22:00+1wsw41256100 0.0 1028423